Location: Grasslands National Park East Block
(49.0708°N, 106.5295°W)
Time: 17:29:02
(UTC-06:00)

Daily predictions for brighter satellites

Satellite Brightness Start Highest point End
(mag) Time Altitude Azimuth Time Altitude Azimuth Time Altitude Azimuth
Resurs 01 Rocket 3.0 21:30:16 10° SSW 21:34:23 39° W 21:38:32 10° NNW
Cosmos 1544 Rocket 4.5 21:31:33 10° N 21:35:36 34° ENE 21:39:39 10° SE
Cosmos 2233 Rocket 4.0 21:33:17 10° S 21:39:22 68° E 21:45:32 10° NNE
BREEZE-M DEB 4.3 21:36:11 10° W 21:40:02 82° N 21:42:56 10° E
Cosmos 1763 Rocket 4.3 21:35:38 10° SSE 21:40:16 31° E 21:44:53 10° NE
USA 238 DEB 3.7 21:34:30 10° SW 21:41:23 85° SE 21:48:25 10° NE
USA 238 3.7 21:34:37 10° SW 21:41:29 84° SE 21:48:31 10° NE
Tiangong 2 3.0 21:39:59 10° S 21:41:33 13° SSE 21:43:05 10° SE
Cosmos 1570 Rocket 4.1 21:36:25 10° S 21:41:43 68° ESE 21:47:03 10° NNE
Okean 1 3.6 21:43:20 10° SSW 21:47:23 73° W 21:51:29 10° N
SJ 16-02 2.8 21:49:31 10° N 21:53:16 26° ENE 21:57:00 10° ESE
Lacrosse 5 rocket 2.3 21:49:27 10° NW 21:53:45 47° NNE 21:57:48 10° E
Helios 1A 3.5 21:50:04 11° SE 21:53:54 44° ENE 21:57:53 10° N
MetOp-B 4.2 21:48:55 10° SSE 21:54:16 89° ENE 21:59:41 10° NNW
Cosmos 2360 Rocket 2.8 21:48:57 10° NNW 21:54:24 47° NE 21:59:35 11° SE
SPOT 1/Viking Rocket 4.0 21:50:14 10° SE 21:55:09 47° ENE 22:00:05 10° N
Cosmos 1666 3.2 21:52:57 10° NNW 21:56:48 60° W 22:00:36 10° S
Cosmos 1980 Rocket 3.8 21:51:57 10° NW 21:56:51 31° WSW 22:01:44 10° SSW
H-2A R/B 2.0 21:54:07 10° SSE 21:59:03 89° WSW 22:04:08 10° NNW
Cosmos 2219 Rocket 4.0 21:55:40 10° N 21:59:58 22° NE 22:04:13 10° E
Cosmos 1743 3.3 21:57:24 10° NNW 22:01:12 57° W 22:04:56 10° S
Meteor 2-9 Rocket 4.1 21:58:14 10° N 22:03:35 78° ENE 22:08:56 10° SSE
Cosmos 1242 Rocket 3.1 22:00:33 10° NNW 22:04:11 57° W 22:07:45 10° S
Cosmos 1898 Rocket 3.9 21:59:16 10° NNW 22:04:29 63° WSW 22:09:44 10° S
Cosmos 2084 4.1 22:03:11 10° S 22:07:01 32° ESE 22:10:41 10° ENE
Timation 2 Rocket 3.9 22:01:14 10° SSW 22:07:08 67° ESE 22:13:11 10° NE
USA 234 3.3 22:01:48 10° ENE 22:08:24 85° SSE 22:15:00 10° SW
SL-23 DEB 4.1 22:05:21 10° W 22:08:44 77° NNW 22:13:54 10° ENE
Cosmos 2208 Rocket 4.1 22:04:30 10° SSW 22:09:42 83° WNW 22:14:55 10° NNE
Cosmos 2333 Rocket 3.9 22:05:32 10° N 22:10:03 23° NE 22:14:33 10° E
ERS-1 Rocket 3.1 22:08:01 10° SSE 22:13:02 81° WSW 22:18:06 10° NNW
COSMOS 2428 3.9 22:08:38 10° NNW 22:13:44 33° NE 22:18:42 10° ESE
NOSS 3-2 (A) 3.5 22:08:29 10° SW 22:14:28 86° SE 22:21:15 10° NE
deb Kosmos-1763 4.0 22:10:57 10° SSW 22:14:39 80° ESE 22:18:22 10° NNE
Cosmos 1814 Rocket 4.1 22:10:09 10° S 22:15:15 56° ESE 22:20:28 10° NNE
Iridium 2 3.9 22:13:38 10° S 22:17:27 73° W 22:21:18 10° N
Cosmos 1125 Rocket 4.4 22:12:40 10° NNW 22:17:37 39° ENE 22:21:41 14° ESE
NOSS 3-2 (C) 3.4 22:12:36 10° SSW 22:18:34 70° SE 22:25:13 10° NE
Cosmos 2034 Rocket 4.4 22:15:30 12° SSE 22:20:49 46° E 22:26:39 10° NNE
Meteor 2-4 Rocket 3.6 22:17:07 10° S 22:22:31 75° E 22:28:07 10° NNE
Shenzhou-11 Module 3.3 22:20:40 10° WSW 22:23:07 23° S 22:23:51 21° SSE
Cosmos 1340 Rocket 2.9 22:20:38 12° S 22:24:16 60° E 22:28:19 10° NNE
SPOT 5 2.6 22:21:45 15° SSE 22:25:22 85° ENE 22:29:58 10° NNW
Cosmos 1464 Rocket 4.1 22:20:03 10° S 22:26:21 68° E 22:32:42 10° NNE
Landsat 7 3.9 22:22:51 16° SSE 22:26:36 68° ENE 22:31:22 10° N
USA 245 3.7 22:24:51 13° S 22:27:43 58° W 22:31:54 10° NNW
BREEZE-M R/B 2.0 22:24:40 10° WSW 22:27:58 53° SSE 22:30:23 10° E
CARTOSAT-1 3.9 22:25:49 18° SE 22:28:49 52° ENE 22:33:03 10° N
Helios 1B rocket 2.8 22:27:34 10° NNE 22:31:36 47° E 22:34:25 18° SSE
Cosmos 2150 Rocket 4.3 22:28:11 10° NNW 22:33:35 69° WSW 22:37:52 16° S
ATLAS CENTAUR R/B 4.4 22:34:09 10° WSW 22:34:35 10° WSW 22:35:00 10° WSW
IGS 5A 3.5 22:36:52 21° SSE 22:39:33 67° ENE 22:43:43 10° N
Cosmos 2322 3.8 22:34:18 10° NNW 22:40:03 73° ENE 22:44:08 20° SE
Cosmos 1515 3.6 22:40:25 18° S 22:43:12 73° E 22:47:03 10° NNE
Cosmos 1891 Rocket 4.5 22:39:00 10° S 22:45:08 82° E 22:51:31 10° N
Terra 1.9 22:42:06 21° SSE 22:45:17 69° ENE 22:50:03 10° N
Cosmos 2322 Rocket 3.3 22:41:26 10° NW 22:46:34 37° WSW 22:51:13 12° S
Cosmos 1455 Rocket 3.8 22:42:22 10° NNW 22:46:35 48° W 22:50:16 13° SSW
ISS -4.0 22:43:58 10° WSW 22:47:15 81° SSE 22:50:32 10° ENE
CENTAUR R/B 2.6 22:42:58 10° SSW 22:48:51 56° ESE 22:55:40 10° NE
Aureole 2 Rocket 3.0 22:46:14 10° NW 22:49:09 40° WSW 22:50:30 23° SSW
Cosmos 2237 Rocket 3.9 22:45:11 10° NNW 22:49:54 25° NE 22:54:34 10° E
CZ-4C R/B 3.2 22:43:04 10° NW 22:49:54 62° NE 22:56:32 15° ESE
Meteor 1-15 Rocket 4.3 22:44:22 10° NNW 22:50:12 87° W 22:54:23 19° S
Cosmos 1025 Rocket 3.6 22:49:43 24° SE 22:51:48 40° E 22:55:56 10° NNE
SL-16 R/B 3.5 22:48:49 10° NW 22:53:47 32° WSW 22:58:29 11° SSW
CZ-2C R/B 3.2 22:56:54 23° SSE 23:00:19 72° ENE 23:05:56 10° N
ATLAS 3B R/B 3.7 22:53:32 10° WSW 23:00:24 50° NW 23:07:01 10° NE
Abrixas rocket 2.4 22:58:25 10° SW 23:01:30 41° SSE 23:02:09 36° SE
Cosmos 2237 4.3 23:01:31 10° NNW 23:07:16 75° WSW 23:10:45 25° SSE
Cosmos 2219 4.2 23:12:35 24° SE 23:14:28 29° ESE 23:19:20 10° NE
H-2A R/B 4.2 23:14:14 11° E 23:16:43 17° ENE 23:19:25 10° NNE
Tiangong 2 3.5 23:15:00 10° SW 23:15:20 12° SW 23:15:20 12° SW
Okean 1-7 Rocket 4.1 23:16:55 30° SE 23:18:40 45° E 23:23:02 10° NNE
Cosmos 540 Rocket 3.4 23:17:58 16° SSW 23:22:11 89° ESE 23:27:24 10° NNE
BREEZE-M DEB 3.5 23:20:41 10° W 23:23:46 82° S 23:23:49 80° SSE
Cosmos 841 Rocket 4.1 23:19:33 10° SW 23:24:43 56° WNW 23:29:56 10° NNE
Cosmos 1092 Rocket 4.1 23:24:16 10° N 23:30:39 82° W 23:34:31 26° S
SJ 16-02 2.2 23:27:50 10° NW 23:32:01 42° WSW 23:34:02 26° SSW
Lacrosse 5 rocket 1.8 23:28:53 10° WNW 23:33:00 44° SW 23:34:01 36° S
Cosmos 2333 4.2 23:27:50 10° NNW 23:33:29 75° WSW 23:36:23 30° SSE
Mayak 0.5 23:32:28 10° NE 23:35:32 19° E 23:36:07 19° ESE
Cosmos 1805 3.9 23:32:56 10° N 23:36:43 43° ENE 23:37:49 34° ESE
Nimbus 7 Rocket 4.4 23:31:41 10° NNE 23:37:36 83° WNW 23:41:56 19° SSW
Cosmos 2360 Rocket 3.3 23:33:15 10° NW 23:38:15 33° WSW 23:41:21 20° SSW
Cosmos 1842 4.3 23:37:47 29° ESE 23:38:23 30° E 23:41:51 10° NNE
H-2A R/B 4.4 23:37:05 10° WSW 23:39:16 13° W 23:41:30 10° WNW
Cosmos 1953 4.1 23:36:20 10° NNE 23:39:24 21° ENE 23:40:46 18° E
Cosmos 1726 Rocket 3.6 23:35:56 10° N 23:40:20 71° ENE 23:41:55 38° SSE
Cosmos 2219 Rocket 2.1 23:39:03 10° NNW 23:44:41 89° WSW 23:47:21 33° SSE
Cosmos 2058 Rocket 3.3 23:42:25 10° N 23:46:54 60° ENE 23:48:28 37° SE
Cosmos 2228 3.1 23:42:51 10° N 23:47:06 64° ENE 23:48:27 40° SE
CZ-2C R/B 2.7 23:43:30 10° NNE 23:49:10 86° ESE 23:52:20 27° SSW
Cosmos 1544 3.6 23:47:08 10° NNW 23:50:46 52° W 23:51:47 38° SW
USA 234 4.1 23:44:53 10° ENE 23:51:12 52° NNW 23:57:30 10° W
SAR-Lupe-4 3.8 23:50:29 46° SSW 23:51:18 60° WSW 23:54:51 10° NNW
Cosmos 1655 Rocket 4.2 23:45:49 10° N 23:52:13 66° ENE 23:55:27 30° SSE
BREEZE-M R/B 4.3 23:44:32 10° W 23:52:57 82° N 23:58:42 10° E
